Showing default

LEMUR 2 KARENDARRELL, 64841

Orbit data source: Space-Track

LEMUR 2 KARENDARRELL, 64841 is an American payload satellite in SSO that was launched on Mon, 23 Jun 2025 UTC via an FALCON 9 launch vehicle from the Air Force Western Test Range (AFWTR). Payload-class satellites include a variety of spacecraft equipped with specific instruments for various scientific and technological missions. These include communications satellites like Starlink; space stations such as the ISS; scientific satellites like the Hubble; Earth observation satellites from companies like Planet Labs, Umbra, and HawkEye 360; GPS; miniature CubeSats for education and research; and military/defense satellites.

Loading next visibility...
Identifier
64841, 2025-135BU
Orbit
SSO
Country
Flag of USUS
Related business
Manufacturer
Spire/Glasgow
Mission
Operational Commercial Com/MetRO
Bus & Motor
CUBESAT 4U, Unknown motor
Mass
5 kg wet, 5 kg dry
Launch date (UTC)
2025-06-23 (1 year ago)
Launch vehicle
FALCON 9
Launch site
Air Force Western Test Range (AFWTR)
Object type
Payload
Rocket body
Debris
Shape & HBR
Box, 0.2 m
Radar Cross Section
0.045 m², Medium (>0.1 m² and < 1m²)

Expand to show TLE details & history
Last TLE update: 16 hours ago

TLE from 16 hours ago
0 LEMUR 2 KARENDARRELL
1 64841U 25135BU  26171.31990221  .00006327  00000-0  51100-3 0  9991
2 64841  97.7680 287.5224 0009932 189.9900 170.1127 15.00147337 54482
Epoch: 2026-06-20T07:40Z
TLE epoch observation values (Epoch: 2026-06-20T07:40:39.550Z)
Latitude
-0.0001°
Longitude
-96.1786°
Altitude
576.291 km
Speed
7.569 km/s
True Right ascension
19h 10m 05s
True Declination
0° 00' 00"
Sunlit
Object was in full shadow at epoch
Visualization orbit readout
Latitude
Unknown
Longitude
Unknown
Altitude
Unknown
Speed
Unknown
Apparent Right ascension
Unknown
Apparent Declination
Unknown
Sunlit
N/A
Visualization observer readout
Local Sidereal Time
10:18:35
Azimuth
Unknown
Elevation
Unknown
Doppler factor
Unknown
Orbital elements
Apogee altitude
570.344 km
Perigee altitude
556.555 km
Semi-major axis
6,941.587 km
Eccentricity
0.00099
Inclination
97.768°
RAAN
287.5224°
Arg. of periapsis
189.99°
True anomaly
170.13222°
Mean anomaly
170.1127°
Eccentric anomaly
170.12246°
Mean motion
3.7528 °/min
Orbital period
95.93 mins
BSTAR
0.000511
Loading maneuver chart data...
Computing Atmospheric mass density...
Loading historical data...
Loading historical data...
Loading historical data...
Loading historical data...
Loading historical data...
Loading historical data...
Loading historical data...

Documentation

Showing up to 5 results
|